[[{"header":{"parameterUnit":"m.s-1","parameterCategory":1,"la1":30.2992,"la2":30.254,"lo1":-89.0895,"lo2":-89.0443,"dy":0.0025,"dx":0.0025,"nx":19,"ny":19,"refTime":"2026-04-15T21:00:00:Z","depth":0,"parameterNumber":2,"parameterNumberName":"U-component_of_WINDS"},"data":[0,0,0,-0.5236,-0.5236,-0.525,-0.525,-0.5274,-0.5274,0,0,0,0,0,0,0,0,0,0,0,-0.5234,-0.5235,-0.5236,-0.5236,-0.525,-0.525,-0.5273,-0.5274,0,0,0,0,0,0,0,0,0,0,0,-0.5234,-0.5234,-0.5235,-0.5236,-0.525,-0.525,-0.5273,-0.5261,0,0,0,0,0,0,0,0,0,0,-0.5246,-0.5248,-0.5234,-0.5235,-0.5236,-0.525,-0.525,-0.526,-0.5262,-0.5269,0,-0.5276,0,-0.5275,-0.5276,-0.5276,0,0,0,-0.5234,-0.5247,-0.5248,-0.5235,-0.5236,-0.525,-0.5243,-0.5261,-0.5263,-0.5271,-0.5277,-0.5277,-0.5276,-0.5276,-0.5276,-0.5325,-0.5325,0,0,-0.5233,-0.5238,-0.5247,-0.5249,-0.5247,-0.5243,-0.5244,-0.5262,-0.5268,-0.5277,-0.5278,-0.5276,-0.5276,-0.5276,-0.5325,-0.5325,0,0,0,-0.5232,-0.5238,-0.5239,-0.5248,-0.525,-0.5243,-0.5244,-0.5268,-0.5267,-0.5278,-0.5276,-0.5276,-0.5277,-0.5324,-0.5325,-0.5346,0,0,0,-0.5232,-0.5237,-0.5238,-0.5242,-0.525,-0.5259,-0.525,-0.5266,-0.5268,-0.5276,-0.5276,-0.5277,-0.5324,-0.5325,-0.5344,-0.5355,0,0,0,-0.5232,-0.5237,-0.524,-0.5242,-0.5248,-0.5259,-0.5259,-0.5266,-0.5267,-0.5276,-0.5277,-0.5324,-0.5324,-0.5343,-0.5353,-0.5369,0,0,0,-0.5235,-0.5259,-0.5241,-0.5268,-0.5248,-0.5271,-0.5259,-0.5276,-0.5286,-0.5276,-0.5324,-0.5325,-0.5343,-0.5352,-0.5368,-0.5384,-0.5391,0,0,-0.5269,-0.5263,-0.5279,-0.5263,-0.5291,-0.5269,-0.53,-0.5304,-0.53,-0.5317,-0.5318,-0.5345,-0.5353,-0.5369,-0.5429,-0.5435,0,0,0,-0.5291,-0.5302,-0.5309,-0.5318,-0.5322,-0.5326,-0.5325,-0.5326,-0.534,-0.531,-0.5355,-0.5359,-0.5369,-0.5376,-0.5381,-0.5389,-0.5328,-0.5328,-0.5328,-0.5347,-0.534,-0.5365,-0.5361,-0.537,-0.5368,-0.5375,-0.5377,-0.5368,-0.5379,-0.5384,-0.5421,-0.543,-0.5434,-0.5442,-0.5392,-0.5392,-0.5392,-0.5392,-0.5396,-0.5411,-0.5398,-0.5417,-0.541,-0.5427,-0.5426,-0.5419,-0.5433,-0.5417,-0.5425,-0.5407,-0.544,-0.5447,-0.5393,-0.5393,-0.5393,-0.5393,-0.5393,-0.5432,-0.5438,-0.5439,-0.5452,-0.5463,-0.5457,-0.5471,-0.5464,-0.5458,-0.5466,-0.547,-0.547,-0.5469,-0.5468,-0.5468,-0.5469,-0.5469,-0.5469,-0.5469,-0.547,-0.547,-0.5483,-0.5488,-0.5493,-0.5499,-0.5497,-0.5502,-0.5506,-0.55,-0.55,-0.549,-0.5444,-0.5433,-0.5471,-0.547,-0.547,-0.547,-0.547,-0.5523,-0.5509,-0.5529,-0.5534,-0.554,-0.5551,-0.5541,-0.5552,-0.5555,-0.5562,-0.555,-0.5517,-0.5512,-0.5508,-0.5499,-0.5551,-0.5551,-0.5551,-0.5551,-0.5554,-0.555,-0.5568,-0.5576,-0.5584,-0.5577,-0.5599,-0.5598,-0.5595,-0.5596,-0.5588,-0.5575,-0.5571,-0.5568,-0.5563,-0.5554,-0.5619,-0.5619,-0.5619,-0.5586,-0.5582,-0.5603,-0.5599,-0.5603,-0.5606,-0.5627,-0.5637,-0.5631,-0.5622,-0.5597,-0.5595,-0.5574,-0.5567,-0.5558,-0.555,-0.5534,0,0]},{"header":{"parameterUnit":"m.s-1","parameterCategory":1,"la1":30.2992,"la2":30.254,"lo1":-89.0895,"lo2":-89.0443,"dy":0.0025,"dx":0.0025,"nx":19,"ny":19,"refTime":"2026-04-15T21:00:00:Z","depth":0,"parameterNumber":3,"parameterNumberName":"V-component_of_WINDS"},"data":[0,0,0,2.3325,2.3324,2.3248,2.3248,2.3173,2.3172,0,0,0,0,0,0,0,0,0,0,0,2.3358,2.3358,2.3325,2.3324,2.3248,2.3248,2.3173,2.3172,0,0,0,0,0,0,0,0,0,0,0,2.3358,2.3358,2.3358,2.3324,2.3248,2.3248,2.3173,2.3223,0,0,0,0,0,0,0,0,0,0,2.3293,2.3333,2.3358,2.3358,2.3323,2.3249,2.3248,2.3225,2.322,2.3215,0,2.3212,0,2.3191,2.3168,2.3168,0,0,0,2.3316,2.3337,2.3307,2.3358,2.3323,2.3249,2.328,2.3222,2.3216,2.3209,2.3211,2.3208,2.319,2.3168,2.3168,2.3162,2.3163,0,0,2.3321,2.3351,2.3311,2.3304,2.3314,2.3283,2.3278,2.3218,2.3223,2.3211,2.3206,2.3189,2.3168,2.3167,2.3162,2.3162,0,0,0,2.3338,2.3354,2.3325,2.3307,2.3292,2.3281,2.3275,2.3226,2.3214,2.3205,2.3188,2.3167,2.3167,2.3162,2.3162,2.3207,0,0,0,2.334,2.3364,2.3327,2.3345,2.3294,2.3258,2.3285,2.3218,2.321,2.3188,2.3167,2.3166,2.3161,2.3162,2.3205,2.3224,0,0,0,2.336,2.3366,2.3359,2.3347,2.3315,2.3258,2.3242,2.3216,2.32,2.3168,2.3166,2.3161,2.3162,2.3203,2.3221,2.3232,0,0,0,2.339,2.34,2.336,2.3365,2.3316,2.3286,2.3242,2.3218,2.3196,2.3167,2.3161,2.3162,2.3203,2.3219,2.323,2.3247,2.3256,0,0,2.342,2.3405,2.3405,2.3367,2.3351,2.3295,2.3286,2.3238,2.3208,2.318,2.3179,2.3206,2.322,2.3231,2.3298,2.3306,0,0,0,2.3425,2.3426,2.3415,2.3394,2.3356,2.3327,2.3276,2.3258,2.3233,2.3199,2.3211,2.3219,2.3224,2.3231,2.3238,2.3241,2.3166,2.3166,2.3166,2.3511,2.3471,2.3469,2.3421,2.3402,2.3349,2.3331,2.3299,2.3265,2.3269,2.326,2.3305,2.3314,2.3319,2.3323,2.3265,2.3265,2.3266,2.3266,2.3551,2.3546,2.35,2.3483,2.3442,2.3427,2.3378,2.3355,2.3337,2.3308,2.3311,2.3284,2.3329,2.333,2.3269,2.3268,2.3268,2.3267,2.3267,2.3603,2.3594,2.3571,2.3538,2.3517,2.3468,2.3453,2.3416,2.3381,2.3384,2.3372,2.3371,2.3367,2.3381,2.3381,2.3381,2.3381,2.3381,2.3381,2.3666,2.3639,2.3629,2.3591,2.3573,2.3546,2.3495,2.3477,2.3448,2.3423,2.3423,2.339,2.334,2.3329,2.3384,2.3383,2.3383,2.3383,2.3383,2.3723,2.3704,2.3689,2.3672,2.3624,2.3607,2.356,2.3528,2.3508,2.3502,2.3469,2.3437,2.342,2.3414,2.3405,2.3476,2.3476,2.3476,2.3476,2.3767,2.3755,2.3732,2.3706,2.3677,2.3633,2.3621,2.3582,2.3539,2.3525,2.351,2.3494,2.349,2.3475,2.3468,2.3459,2.3542,2.3542,2.3542,2.3801,2.3783,2.3778,2.3734,2.3695,2.3663,2.365,2.3625,2.3573,2.3544,2.3514,2.3511,2.3485,2.3478,2.3449,2.344,2.3422,0,0]}]]